[[{"header":{"parameterUnit":"m.s-1","parameterCategory":1,"la1":30.2991,"la2":30.254,"lo1":-89.0895,"lo2":-89.0444,"dy":0.0017,"dx":0.0017,"nx":28,"ny":28,"refTime":"2024-04-25T21:00:00:Z","depth":0,"parameterNumber":2,"parameterNumberName":"U-component_of_WINDS"},"data":[0,0,0,0,0,0,0,0,0,0,0,0,0,0,0,0,0,0,0,0,0,0,0,0,0,0,0,0,0,0,0,0,0,0,0,0,0,0,0,0,0,0,0,0,0,0,0,0,0,0,0,0,0,0,0,0,0,0,-1.2876,-1.2877,0,-1.29,-1.2901,-1.2901,-1.288,-1.288,-1.2879,-1.2878,-1.2903,-1.2905,-1.2906,0,0,0,0,0,0,0,0,0,0,0,0,0,-1.2815,-1.2816,-1.2876,-1.2877,-1.2877,-1.29,-1.2901,-1.2901,-1.2881,-1.288,-1.2878,-1.2877,-1.2903,-1.2905,-1.2906,0,0,0,0,0,0,0,0,0,0,0,0,0,-1.2841,-1.2816,-1.2876,-1.287,-1.2869,-1.29,-1.2901,-1.2901,-1.2881,-1.2879,-1.2878,-1.2877,-1.2902,-1.2905,-1.2907,-1.2946,0,0,-1.2913,-1.2914,0,0,0,0,0,0,0,0,-1.2839,-1.2843,-1.287,-1.287,-1.287,-1.2886,-1.2888,-1.2916,-1.2881,-1.2876,-1.2878,-1.2876,-1.2899,-1.2901,-1.2909,-1.2947,-1.2948,-1.2914,-1.2915,-1.2916,-1.2917,0,0,0,0,0,0,0,-1.2837,-1.2842,-1.2886,-1.2871,-1.287,-1.2866,-1.2868,-1.2893,-1.2895,-1.2877,-1.2875,-1.2878,-1.2898,-1.2906,-1.2909,-1.2949,-1.2914,-1.2916,-1.2917,-1.2918,-1.3022,-1.3023,0,0,0,0,0,0,-1.2836,-1.284,-1.2885,-1.2887,-1.2851,-1.2868,-1.2871,-1.2882,-1.2894,-1.2895,-1.2879,-1.2877,-1.2903,-1.2906,-1.291,-1.2957,-1.2916,-1.2918,-1.2919,-1.302,-1.3022,-1.3024,0,0,0,0,0,0,-1.2835,-1.284,-1.2884,-1.2863,-1.2868,-1.2871,-1.2884,-1.2883,-1.2891,-1.2896,-1.2896,-1.2887,-1.2902,-1.2907,-1.2937,-1.2958,-1.2919,-1.2921,-1.3019,-1.3021,-1.3023,-1.3052,0,0,0,0,0,0,-1.2833,-1.284,-1.2854,-1.2864,-1.287,-1.2911,-1.2885,-1.2885,-1.2895,-1.2893,-1.2904,-1.2904,-1.2902,-1.2934,-1.2939,-1.296,-1.2923,-1.3017,-1.302,-1.3022,-1.3049,-1.3055,-1.306,0,0,0,0,0,-1.2831,-1.2862,-1.2855,-1.2861,-1.2888,-1.2912,-1.2916,-1.2912,-1.2897,-1.2912,-1.2915,-1.2904,-1.2955,-1.2937,-1.2943,-1.2965,-1.3015,-1.3019,-1.3022,-1.3047,-1.3054,-1.3059,0,0,0,0,0,0,-1.2855,-1.2863,-1.2856,-1.289,-1.2901,-1.2909,-1.2927,-1.2919,-1.2934,-1.2931,-1.2926,-1.2929,-1.2961,-1.2966,-1.2947,-1.3004,-1.2983,-1.2987,-1.3,-1.3006,-1.3011,-1.301,-1.2925,0,0,0,0,0,-1.2864,-1.2883,-1.2889,-1.2919,-1.2924,-1.2925,-1.2936,-1.2932,-1.2942,-1.2947,-1.2952,-1.2964,-1.2982,-1.2994,-1.3011,-1.305,-1.3052,-1.3067,-1.3073,-1.3077,-1.3081,-1.3102,-1.3109,-1.3034,-1.3034,-1.3034,0,0,-1.2884,-1.289,-1.2903,-1.2924,-1.2932,-1.2952,-1.2929,-1.2951,-1.2966,-1.295,-1.298,-1.2984,-1.2996,-1.3031,-1.3047,-1.3036,-1.3102,-1.3081,-1.3084,-1.3086,-1.3106,-1.3114,-1.312,-1.3036,-1.3036,-1.3036,0,0,-1.293,-1.2936,-1.2962,-1.297,-1.2982,-1.2982,-1.2989,-1.2998,-1.3001,-1.303,-1.3019,-1.3037,-1.3068,-1.3078,-1.3087,-1.3137,-1.3128,-1.3143,-1.317,-1.3191,-1.3197,-1.3202,-1.3221,-1.3227,-1.3147,-1.3147,-1.3147,0,-1.2953,-1.2982,-1.2977,-1.3,-1.301,-1.2996,-1.3023,-1.3031,-1.3048,-1.3056,-1.3044,-1.3084,-1.3091,-1.3128,-1.3141,-1.3148,-1.3156,-1.3142,-1.3197,-1.3202,-1.3207,-1.3224,-1.3231,-1.3149,-1.3149,-1.3148,-1.3148,0,-1.301,-1.3031,-1.305,-1.3067,-1.3079,-1.3104,-1.3103,-1.3116,-1.3111,-1.3113,-1.3144,-1.3152,-1.3171,-1.3179,-1.3175,-1.3216,-1.3209,-1.3197,-1.3176,-1.3216,-1.3232,-1.3239,-1.3151,-1.3151,-1.315,-1.315,0,0,-1.3072,-1.3085,-1.3093,-1.31,-1.3113,-1.3129,-1.3153,-1.3172,-1.3183,-1.3196,-1.3217,-1.3244,-1.3233,-1.3243,-1.324,-1.3258,-1.3298,-1.3243,-1.3244,-1.3254,-1.3345,-1.3354,-1.3362,-1.3292,-1.3293,-1.3294,-1.3344,0,-1.3119,-1.3161,-1.3157,-1.3197,-1.3217,-1.3204,-1.3226,-1.3236,-1.3239,-1.3256,-1.3259,-1.3279,-1.3262,-1.3268,-1.3286,-1.329,-1.3316,-1.3286,-1.3312,-1.3313,-1.331,-1.3371,-1.3381,-1.3428,-1.335,-1.3352,-1.3352,0,-1.3179,-1.3193,-1.3236,-1.3245,-1.3253,-1.3273,-1.329,-1.3306,-1.3318,-1.3318,-1.333,-1.3324,-1.3349,-1.3327,-1.3362,-1.3342,-1.3352,-1.3356,-1.3357,-1.336,-1.3335,-1.3376,-1.3442,-1.345,-1.3362,-1.3362,-1.3361,0,-1.3221,-1.3251,-1.328,-1.3287,-1.3299,-1.3313,-1.3318,-1.3329,-1.334,-1.3355,-1.3363,-1.338,-1.339,-1.3405,-1.3403,-1.3387,-1.344,-1.3417,-1.3441,-1.3442,-1.3453,-1.3453,-1.3523,-1.3459,-1.3459,-1.3459,-1.3459,0,-1.3274,-1.33,-1.3299,-1.3317,-1.3346,-1.3342,-1.3371,-1.3376,-1.3385,-1.3404,-1.3395,-1.3413,-1.341,-1.3429,-1.3428,-1.3458,-1.3462,-1.3464,-1.3464,-1.3465,-1.3465,-1.3472,-1.3469,-1.3461,-1.3461,-1.346,-1.346,0,-1.3326,-1.3326,-1.3357,-1.3365,-1.3368,-1.339,-1.3398,-1.3415,-1.3417,-1.3441,-1.3447,-1.345,-1.3471,-1.3471,-1.3496,-1.3495,-1.3532,-1.3527,-1.3528,-1.3527,-1.3552,-1.355,-1.363,-1.364,-1.3569,-1.357,-1.357,0,-1.336,-1.338,-1.3391,-1.3403,-1.3409,-1.3429,-1.344,-1.3437,-1.345,-1.3465,-1.3481,-1.3501,-1.3517,-1.3552,-1.3557,-1.3575,-1.3572,-1.3599,-1.3575,-1.3576,-1.3573,-1.3572,-1.3574,-1.3603,-1.3604,-1.3605,-1.3605,0,-1.3421,-1.342,-1.3437,-1.3454,-1.3468,-1.3481,-1.3494,-1.3504,-1.3502,-1.3517,-1.3539,-1.3551,-1.3576,-1.3597,-1.3615,-1.3622,-1.3614,-1.3613,-1.362,-1.3622,-1.3621,-1.3622,-1.3541,-1.3611,-1.3611,-1.361,-1.361,-1.361,-1.3465,-1.3483,-1.3493,-1.3513,-1.3521,-1.3533,-1.355,-1.3554,-1.3572,-1.3592,-1.3589,-1.3613,-1.3625,-1.3648,-1.3657,-1.3676,-1.3667,-1.3676,-1.3679,-1.3681,-1.3684,-1.3618,-1.3679,-1.3679,-1.3679,-1.3679,-1.3679,0,-1.3527,-1.3533,-1.355,-1.3568,-1.3583,-1.3574,-1.3587,-1.3601,-1.3622,-1.3633,-1.3649,-1.3675,-1.3695,-1.3701,-1.372,-1.3735,-1.3732,-1.374,-1.3739,-1.3741,-1.3691,-1.3684,-1.3742,-1.3742,-1.3742,-1.3742,-1.3742,-1.3742,-1.356,-1.3589,-1.359,-1.3624,-1.363,-1.3653,-1.3661,-1.3673,-1.3682,-1.371,-1.3727,-1.373,-1.374,-1.376,-1.3778,-1.378,-1.3788,-1.3798,-1.3798,-1.3751,-1.3745,-1.3739,-1.3731,-1.3799,-1.3799,-1.3846,-1.3847,-1.3847]},{"header":{"parameterUnit":"m.s-1","parameterCategory":1,"la1":30.2991,"la2":30.254,"lo1":-89.0895,"lo2":-89.0444,"dy":0.0017,"dx":0.0017,"nx":28,"ny":28,"refTime":"2024-04-25T21:00:00:Z","depth":0,"parameterNumber":3,"parameterNumberName":"V-component_of_WINDS"},"data":[0,0,0,0,0,0,0,0,0,0,0,0,0,0,0,0,0,0,0,0,0,0,0,0,0,0,0,0,0,0,0,0,0,0,0,0,0,0,0,0,0,0,0,0,0,0,0,0,0,0,0,0,0,0,0,0,0,0,4.1814,4.1814,0,4.1811,4.1811,4.1811,4.1728,4.1726,4.1724,4.1722,4.1718,4.172,4.1722,0,0,0,0,0,0,0,0,0,0,0,0,0,4.175,4.1752,4.1814,4.1814,4.1814,4.1811,4.1811,4.181,4.1729,4.1726,4.1724,4.1721,4.1718,4.172,4.1722,0,0,0,0,0,0,0,0,0,0,0,0,0,4.1766,4.1752,4.1814,4.1773,4.1769,4.1811,4.1811,4.181,4.1729,4.1726,4.1723,4.172,4.1717,4.172,4.1723,4.1803,0,0,4.1731,4.1732,0,0,0,0,0,0,0,0,4.1765,4.1768,4.1779,4.1776,4.1772,4.1767,4.1786,4.1808,4.173,4.1745,4.1722,4.1718,4.1737,4.1738,4.1744,4.1803,4.1803,4.1731,4.1733,4.1734,4.1735,0,0,0,0,0,0,0,4.1764,4.1768,4.1813,4.1779,4.1775,4.1754,4.1753,4.179,4.1759,4.1743,4.1737,4.1738,4.1734,4.1742,4.1744,4.1803,4.1731,4.1734,4.1736,4.1737,4.1926,4.1929,0,0,0,0,0,0,4.1768,4.1767,4.1813,4.1813,4.176,4.1758,4.1757,4.1772,4.1758,4.1753,4.174,4.1734,4.1739,4.174,4.1743,4.1835,4.1734,4.1737,4.1739,4.1922,4.1926,4.193,0,0,0,0,0,0,4.1767,4.1773,4.1813,4.1788,4.1792,4.1763,4.178,4.1773,4.178,4.1756,4.175,4.1754,4.1736,4.1739,4.1788,4.1834,4.1738,4.1741,4.1918,4.1924,4.1928,4.2021,0,0,0,0,0,0,4.1766,4.1773,4.1804,4.179,4.1794,4.1859,4.1783,4.1775,4.1785,4.1777,4.1767,4.1762,4.1734,4.1785,4.1791,4.1836,4.1743,4.1914,4.1921,4.1927,4.2013,4.2028,4.2041,0,0,0,0,0,4.1764,4.1831,4.1806,4.1812,4.1831,4.1862,4.1864,4.183,4.1789,4.1819,4.1804,4.1762,4.1828,4.179,4.1797,4.1843,4.1911,4.1919,4.1926,4.2007,4.2025,4.204,0,0,0,0,0,0,4.1852,4.1828,4.18,4.1865,4.1866,4.1848,4.1885,4.185,4.1863,4.1855,4.1812,4.1811,4.1866,4.186,4.1818,4.192,4.1862,4.1872,4.1922,4.1939,4.1952,4.1952,4.1745,0,0,0,0,0,4.1878,4.1905,4.1883,4.1942,4.1944,4.1915,4.1927,4.19,4.19,4.19,4.1888,4.1889,4.1909,4.1924,4.1942,4.2012,4.2008,4.2047,4.2061,4.2073,4.2081,4.2116,4.2133,4.1955,4.1955,4.1955,0,0,4.1934,4.1924,4.1944,4.1959,4.1957,4.1985,4.1916,4.1949,4.1969,4.1905,4.195,4.1942,4.194,4.2,4.2026,4.1996,4.2129,4.2082,4.2091,4.2093,4.2125,4.2142,4.2157,4.196,4.1959,4.1958,0,0,4.2049,4.2046,4.2093,4.2092,4.2089,4.2069,4.2081,4.2068,4.2059,4.2104,4.2056,4.208,4.2117,4.2117,4.2122,4.2236,4.2198,4.2244,4.2315,4.235,4.2364,4.2376,4.2415,4.243,4.2252,4.2252,4.2252,0,4.2118,4.2159,4.2122,4.2158,4.2165,4.2108,4.2155,4.2156,4.216,4.2166,4.2133,4.2177,4.2173,4.2231,4.2259,4.2265,4.2276,4.2244,4.2365,4.2376,4.2387,4.2424,4.2439,4.2257,4.2257,4.2256,4.2256,0,4.2243,4.2272,4.2311,4.2315,4.2327,4.2369,4.2337,4.2354,4.2327,4.231,4.2356,4.2348,4.2362,4.2374,4.2348,4.2429,4.241,4.2372,4.2313,4.241,4.2444,4.2458,4.2265,4.2263,4.2262,4.226,0,0,4.2414,4.2395,4.241,4.241,4.2403,4.2424,4.2463,4.2477,4.2491,4.2496,4.2526,4.2558,4.2522,4.2528,4.2502,4.2533,4.2622,4.249,4.2489,4.2513,4.2708,4.2736,4.2753,4.2597,4.26,4.2602,4.2708,0,4.2523,4.2588,4.2555,4.2623,4.2648,4.2594,4.2628,4.2627,4.2612,4.2632,4.2615,4.2638,4.259,4.2593,4.2621,4.2605,4.266,4.2597,4.2624,4.2626,4.2625,4.2771,4.2801,4.2901,4.2721,4.2723,4.2725,0,4.266,4.2669,4.274,4.2726,4.2735,4.2766,4.2775,4.2794,4.2792,4.2779,4.2785,4.2751,4.2787,4.2731,4.2779,4.2737,4.2747,4.2741,4.2744,4.2744,4.268,4.2773,4.2932,4.2947,4.2746,4.2744,4.2743,0,4.2774,4.2805,4.285,4.2852,4.2838,4.286,4.2856,4.285,4.286,4.2868,4.2873,4.2887,4.2893,4.2904,4.2874,4.2836,4.2927,4.2868,4.2916,4.2917,4.2937,4.2935,4.3098,4.2946,4.2946,4.2945,4.2945,0,4.29,4.2945,4.2901,4.2929,4.2978,4.2939,4.2988,4.2978,4.2973,4.2997,4.2953,4.2977,4.2936,4.2957,4.2934,4.2977,4.2981,4.2971,4.2964,4.2974,4.2975,4.2978,4.297,4.2949,4.2948,4.2948,4.2947,0,4.3035,4.3008,4.3054,4.3036,4.3033,4.3069,4.3054,4.3079,4.3061,4.3093,4.3098,4.307,4.3091,4.3063,4.3082,4.3066,4.3125,4.3109,4.3126,4.312,4.317,4.3165,4.3338,4.3359,4.3196,4.3197,4.3199,0,4.3116,4.3149,4.3135,4.3147,4.3145,4.3167,4.3176,4.314,4.3151,4.315,4.3175,4.3192,4.3204,4.3241,4.3222,4.3236,4.3218,4.3278,4.322,4.3229,4.3217,4.3215,4.3217,4.329,4.3292,4.3293,4.3295,0,4.3262,4.3246,4.3261,4.3272,4.3284,4.3291,4.3294,4.3307,4.3269,4.3284,4.3305,4.3314,4.3333,4.335,4.3359,4.3354,4.3318,4.3313,4.3325,4.3335,4.3343,4.3337,4.3156,4.3309,4.3308,4.3307,4.3306,4.3305,4.3371,4.3397,4.3391,4.3409,4.3407,4.3411,4.3433,4.3417,4.3434,4.3445,4.3423,4.3449,4.3445,4.3453,4.3451,4.3471,4.3445,4.3463,4.3467,4.3471,4.3478,4.3341,4.3473,4.3473,4.3472,4.3472,4.3471,0,4.3513,4.3506,4.3523,4.3528,4.3542,4.3507,4.3508,4.3522,4.3545,4.3544,4.3556,4.3579,4.3596,4.3579,4.3592,4.3611,4.3595,4.3615,4.3613,4.3612,4.3501,4.3489,4.3628,4.3628,4.3628,4.3628,4.3628,4.3628,4.3588,4.363,4.3614,4.3654,4.3646,4.3671,4.3675,4.3678,4.3676,4.3704,4.3717,4.3705,4.3697,4.3709,4.3723,4.3717,4.3724,4.375,4.3739,4.3635,4.362,4.3605,4.3593,4.3752,4.3752,4.3847,4.3848,4.3849]}]]